OK1FCB-1 Weather Reports


time (UTC)temp
C
wind
direction
speed
KPH
gust
KPH
rain 1hr
cm
rain 24hr
cm
rain mn
cm
humidity
%
barometer
mb
20260504185353 17 0.0 0.0 0.00 0.00 0.00 49 1015.4
20260504185347 17 0.0 0.0 0.00 0.00 0.00 49 1015.4
20260504183849 17 0.0 0.0 0.00 0.00 0.00 47 1015.4
20260504182352 18 0.0 0.0 0.00 0.00 0.00 45 1015.4
20260504175405 20 0.0 0.0 0.00 0.00 0.00 41 1015.2
20260504175359 20 0.0 0.0 0.00 0.00 0.00 41 1015.2
20260504170918 25 0.0 0.0 0.00 0.00 0.00 33 1015.2
20260504170912 25 0.0 0.0 0.00 0.00 0.00 33 1015.2
20260504150940 28 0.0 0.0 0.00 0.00 0.00 29 1015.6
20260504140954 32 0.0 0.0 0.00 0.00 0.00 26 1016.0
20260504081034 23 0.0 0.0 0.00 0.00 0.00 33 1018.3
20260504081028 23 0.0 0.0 0.00 0.00 0.00 33 1018.3
20260504044047 12 0.0 0.0 0.00 0.00 0.00 55 1018.1
20260504042547 10 0.0 0.0 0.00 0.00 0.00 57 1018.1
20260504041054 8 0.0 0.0 0.00 0.00 0.00 57 1018.0
20260504035555 8 0.0 0.0 0.00 0.00 0.00 58 1018.1
20260504035549 8 0.0 0.0 0.00 0.00 0.00 58 1018.1
20260504032559 7 0.0 0.0 0.00 0.00 0.00 57 1018.1
20260504032553 7 0.0 0.0 0.00 0.00 0.00 57 1018.1
20260504025604 8 0.0 0.0 0.00 0.00 0.00 55 1017.9
20260504024107 8 0.0 0.0 0.00 0.00 0.00 55 1017.7
20260504024101 8 0.0 0.0 0.00 0.00 0.00 55 1017.7
20260504021112 8 0.0 0.0 0.00 0.00 0.00 55 1017.6
20260504021106 8 0.0 0.0 0.00 0.00 0.00 55 1017.6
20260504015614 8 0.0 0.0 0.00 0.00 0.00 55 1017.7
20260504015608 8 0.0 0.0 0.00 0.00 0.00 55 1017.7
20260504014110 8 0.0 0.0 0.00 0.00 0.00 55 1017.8
20260504012619 9 0.0 0.0 0.00 0.00 0.00 54 1017.8
20260504012613 9 0.0 0.0 0.00 0.00 0.00 54 1017.8
20260504002628 10 0.0 0.0 0.00 0.00 0.00 53 1017.6
20260504002622 10 0.0 0.0 0.00 0.00 0.00 53 1017.6
20260503232637 11 0.0 0.0 0.00 0.00 0.00 50 1017.8
20260503232631 11 0.0 0.0 0.00 0.00 0.00 50 1017.8
20260503225637 12 0.0 0.0 0.00 0.00 0.00 48 1017.8
20260503215652 13 0.0 0.0 0.00 0.00 0.00 47 1017.9
20260503215646 13 0.0 0.0 0.00 0.00 0.00 47 1017.9
20260503212656 13 0.0 0.0 0.00 0.00 0.00 47 1018.0
20260503212650 13 0.0 0.0 0.00 0.00 0.00 47 1018.0
20260503211158 13 0.0 0.0 0.00 0.00 0.00 46 1018.0
20260503211153 13 0.0 0.0 0.00 0.00 0.00 46 1018.0
20260503205655 13 0.0 0.0 0.00 0.00 0.00 44 1017.9
20260503204203 13 0.0 0.0 0.00 0.00 0.00 44 1017.9
20260503204157 13 0.0 0.0 0.00 0.00 0.00 44 1017.9
20260503202704 13 0.0 0.0 0.00 0.00 0.00 44 1018.0
20260503202658 13 0.0 0.0 0.00 0.00 0.00 44 1018.0
20260503201207 13 0.0 0.0 0.00 0.00 0.00 44 1018.1
20260503201201 13 0.0 0.0 0.00 0.00 0.00 44 1018.1
20260503195710 14 0.0 0.0 0.00 0.00 0.00 42 1018.1
20260503195704 14 0.0 0.0 0.00 0.00 0.00 42 1018.1
20260503194212 15 0.0 0.0 0.00 0.00 0.00 41 1018.2
20260503194206 15 0.0 0.0 0.00 0.00 0.00 41 1018.2
20260503191218 16 0.0 0.0 0.00 0.00 0.00 39 1017.8
20260503191212 16 0.0 0.0 0.00 0.00 0.00 39 1017.8